385  
ASUS44 KLCH 211410  
RWRLCH  
REGIONAL WEATHER ROUNDUP  
NATIONAL WEATHER SERVICE LAKE CHARLES LA  
900 AM CDT SAT MAY 21 2022  
 
NOTE: "FAIR" INDICATES FEW OR NO CLOUDS BELOW 12,000 FEET WITH NO  
SIGNIFICANT WEATHER AND/OR S TO VISIBILITY
.  
 
ACROSS SOUTHEAST TEXAS  
 
CITY SKY/WX TMP DP RH WIND PRES REMARKS
 
BEAUMONT MOSUNNY 84 76 76 SE18G28 29.88R  
BEAUMONT CITY PTSUNNY 85 76 74 S15 29.89R  
ORANGE CLOUDY 87 77 72 S9G16 29.92R  
JASPER PTSUNNY 81 77 89 S8G17 29.89R  

 
 
ACROSS CENTRAL LOUISIANA  
 
CITY SKY/WX TMP DP RH WIND PRES REMARKS
 
LEESVILLE CLOUDY 82 74 78 S16 29.90R  
FULLERTON PTSUNNY 82 75 79 VRB6 29.90R  
ALEXANDRIA INT CLOUDY 84 73 69 S16G28 29.91R  
ESLER FIELD CLOUDY 82 76 81 S9 29.93R  
DERIDDER PTSUNNY 83 75 78 S12 29.94R  
OAKDALE CLOUDY 82 73 74 S5 29.93R  
OPELOUSAS PTSUNNY 83 75 79 S12 29.96R  

 
 
ACROSS SOUTHWEST AND SOUTH CENTRAL LOUISIANA  
 
CITY SKY/WX TMP DP RH WIND PRES REMARKS
 
DEQUINCY FAIR 83 74 73 S15G22 29.92R  
SULPHUR NOT AVBL  
LAKE CHARLES CLOUDY 84 74 71 S21G29 29.91R  
CHENNAULT INT MOSUNNY 84 73 70 S21 29.92R  
JENNINGS CLOUDY 83 75 77 S15 29.94R  
LAFAYETTE PTSUNNY 85 74 69 S10G20 29.96R  
NEW IBERIA CLOUDY 83 74 74 S16G23 29.96R  
ABBEVILLE CLOUDY 83 73 71 S10 29.96R  
PATTERSON CLOUDY 83 80 91 SE13G18 29.97R  
SALT POINT N/A 82 77 84 VRB5 29.95R  

 
 
SELECTED SITES ACROSS THE REGION  
 
CITY SKY/WX TMP DP RH WIND PRES REMARKS
 
HOUSTON BUSH PTSUNNY 84 73 69 S13G23 29.87R  
HOUSTON HOBBY PTSUNNY 84 75 74 S16G24 29.86R  
GALVESTON CLOUDY 86 77 74 SE16 29.87R  
COLLEGE STAT CLOUDY 83 75 77 S14 29.85R  
CONROE CLOUDY 82 75 79 S12 29.88R  
HUNTSVILLE MOSUNNY 84 74 71 S8 29.87R  
LUFKIN MOSUNNY 83 74 74 S14 29.87R  
SHREVEPORT PTSUNNY 83 73 72 S13 29.89R  
MONROE PTSUNNY 82 74 76 S8 29.95R  
NATCHEZ MS CLOUDY 81 74 79 SE12 29.98R  
BATON ROUGE CLOUDY 82 76 81 SE8 29.97R  
N.O. INTL ARPT PTSUNNY 83 76 79 S13 29.97R  
SLIDELL CLOUDY 85 75 72 S15 30.00R  

 
 
MARINE REPORTS  
 
STATION/POSITION TIME SKY/WX TEMP WIND PRES VSBY
 
AIR SEA DIR/SP/G  
(UTC) (F) (DEG/KT/KT) (MB) (MI)  
BUOY 30 S HIGH I 1350 81 140/ 16/ 19 1011.4R  
SEA RIM ST PARK 1300 81 160/ 12/ 15 1011.7R  
PORT ARTHUR 1330 82 82 140/ 9/ 13 1012.0R  
TEXAS POINT 1330 81 81 150/ 18/ 19 1011.2R  
CALCASIEU PASS 1330 81 82 170/ 15/ 19 1010.9R  
LK CHARLES BEACH 1330 83 83 1013.1R  
MARSH ISLAND NOT AVBL  
FRESH WATER LOCK NOT AVBL  
AMERADA PASS 1324 83 76 140/ 9/ 16 1014.3  

 
 
 
CLICK HERE TO GO TO PREVIOUS BULLETINS.

The Nexlab LA Page
The Nexlab TX Page Main Text Page